[[{"header":{"parameterUnit":"m.s-1","parameterCategory":1,"la1":30.2992,"la2":30.254,"lo1":-89.0895,"lo2":-89.0443,"dy":0.0025,"dx":0.0025,"nx":19,"ny":19,"refTime":"2026-03-08T09:00:00:Z","depth":0,"parameterNumber":2,"parameterNumberName":"U-component_of_WINDS"},"data":[0,0,0,-1.74,-1.7401,-1.745,-1.7451,-1.7517,-1.7518,0,0,0,0,0,0,0,0,0,0,0,-1.7385,-1.7385,-1.74,-1.7401,-1.745,-1.7451,-1.7517,-1.7518,0,0,0,0,0,0,0,0,0,0,0,-1.7385,-1.7385,-1.7386,-1.7401,-1.745,-1.7451,-1.7517,-1.7479,0,0,0,0,0,0,0,0,0,0,-1.743,-1.7416,-1.7385,-1.7386,-1.7401,-1.745,-1.7451,-1.7477,-1.7481,-1.7495,0,-1.7506,0,-1.7513,-1.7522,-1.7523,0,0,0,-1.7401,-1.7412,-1.7426,-1.7386,-1.7402,-1.745,-1.7428,-1.7479,-1.7484,-1.7501,-1.7507,-1.751,-1.7514,-1.7523,-1.7523,-1.7598,-1.7599,0,0,-1.7399,-1.7394,-1.7422,-1.7429,-1.7419,-1.7427,-1.743,-1.7482,-1.7489,-1.7507,-1.7511,-1.7515,-1.7523,-1.7524,-1.7598,-1.7598,0,0,0,-1.739,-1.7392,-1.7404,-1.7426,-1.7435,-1.7428,-1.7432,-1.7487,-1.7491,-1.7512,-1.7516,-1.7524,-1.7524,-1.7598,-1.7598,-1.7608,0,0,0,-1.7389,-1.7387,-1.7403,-1.7401,-1.7434,-1.7461,-1.7435,-1.7488,-1.7494,-1.7516,-1.7524,-1.7525,-1.7597,-1.7598,-1.7607,-1.7614,0,0,0,-1.7382,-1.7386,-1.7393,-1.74,-1.7421,-1.746,-1.7468,-1.7489,-1.7496,-1.7523,-1.7525,-1.7597,-1.7598,-1.7606,-1.7612,-1.7632,0,0,0,-1.7373,-1.7403,-1.7393,-1.7429,-1.7421,-1.7466,-1.7467,-1.7502,-1.7526,-1.7524,-1.7597,-1.7598,-1.7606,-1.7612,-1.7631,-1.7647,-1.7653,0,0,-1.7408,-1.7407,-1.7428,-1.7421,-1.7466,-1.7459,-1.7506,-1.7534,-1.7542,-1.7579,-1.7581,-1.7608,-1.7612,-1.7632,-1.7691,-1.7696,0,0,0,-1.7438,-1.7452,-1.7466,-1.7487,-1.7508,-1.7526,-1.7546,-1.7557,-1.7589,-1.7559,-1.7621,-1.7624,-1.7635,-1.7643,-1.7647,-1.7657,-1.7602,-1.7602,-1.7601,-1.748,-1.7487,-1.7523,-1.7536,-1.7557,-1.7578,-1.7596,-1.7614,-1.7616,-1.763,-1.7641,-1.7676,-1.7685,-1.7688,-1.7699,-1.7651,-1.7651,-1.7651,-1.7651,-1.7532,-1.7554,-1.7555,-1.7589,-1.7598,-1.7628,-1.7649,-1.765,-1.768,-1.7668,-1.7679,-1.7665,-1.7693,-1.7703,-1.7652,-1.7652,-1.7652,-1.7652,-1.7651,-1.756,-1.7572,-1.7583,-1.7615,-1.7639,-1.7653,-1.7681,-1.7688,-1.7695,-1.7706,-1.7718,-1.7718,-1.7718,-1.7711,-1.7711,-1.7711,-1.7711,-1.7712,-1.7712,-1.7584,-1.7596,-1.7618,-1.7642,-1.7657,-1.7678,-1.77,-1.7715,-1.7735,-1.7738,-1.7738,-1.7739,-1.7694,-1.7683,-1.7714,-1.7713,-1.7713,-1.7713,-1.7713,-1.7633,-1.7623,-1.7656,-1.7671,-1.77,-1.7724,-1.7733,-1.7764,-1.7779,-1.7792,-1.7791,-1.7758,-1.7757,-1.7754,-1.7744,-1.779,-1.779,-1.779,-1.779,-1.7656,-1.7656,-1.7692,-1.7715,-1.7739,-1.775,-1.779,-1.7807,-1.7824,-1.7834,-1.7829,-1.7817,-1.7813,-1.7815,-1.7811,-1.7802,-1.786,-1.7861,-1.7861,-1.7686,-1.7689,-1.772,-1.7734,-1.7758,-1.7779,-1.7816,-1.7844,-1.7862,-1.7864,-1.7842,-1.7839,-1.782,-1.7813,-1.7813,-1.7806,-1.779,0,0]},{"header":{"parameterUnit":"m.s-1","parameterCategory":1,"la1":30.2992,"la2":30.254,"lo1":-89.0895,"lo2":-89.0443,"dy":0.0025,"dx":0.0025,"nx":19,"ny":19,"refTime":"2026-03-08T09:00:00:Z","depth":0,"parameterNumber":3,"parameterNumberName":"V-component_of_WINDS"},"data":[0,0,0,3.4367,3.4368,3.4453,3.4454,3.4554,3.4554,0,0,0,0,0,0,0,0,0,0,0,3.4336,3.4336,3.4367,3.4369,3.4453,3.4454,3.4554,3.4554,0,0,0,0,0,0,0,0,0,0,0,3.4335,3.4336,3.4337,3.4369,3.4453,3.4454,3.4553,3.4492,0,0,0,0,0,0,0,0,0,0,3.4412,3.4377,3.4336,3.4337,3.4369,3.4453,3.4454,3.449,3.4496,3.4512,0,3.4523,0,3.454,3.4561,3.4561,0,0,0,3.4373,3.4371,3.44,3.4337,3.437,3.4453,3.4416,3.4493,3.4501,3.452,3.4524,3.4528,3.4542,3.4561,3.4562,3.4635,3.4635,0,0,3.4368,3.4348,3.4395,3.4404,3.439,3.4413,3.4419,3.4498,3.4501,3.4525,3.4531,3.4544,3.4562,3.4563,3.4635,3.4635,0,0,0,3.4352,3.4344,3.4371,3.44,3.4416,3.4416,3.4422,3.4498,3.4508,3.4532,3.4545,3.4562,3.4563,3.4635,3.4635,3.4622,0,0,0,3.4349,3.4335,3.4369,3.4357,3.4414,3.4458,3.442,3.4503,3.4512,3.4544,3.4562,3.4564,3.4635,3.4635,3.4622,3.4619,0,0,0,3.4332,3.4333,3.4343,3.4355,3.4391,3.4457,3.4472,3.4505,3.452,3.4561,3.4565,3.4635,3.4635,3.4623,3.462,3.4634,0,0,0,3.4308,3.4329,3.4342,3.4372,3.439,3.4448,3.4472,3.4516,3.4549,3.4563,3.4635,3.4635,3.4623,3.462,3.4634,3.4642,3.4643,0,0,3.4323,3.433,3.4349,3.4364,3.4414,3.4437,3.4486,3.4536,3.4559,3.4609,3.4611,3.4622,3.462,3.4634,3.4658,3.4659,0,0,0,3.4347,3.4361,3.4379,3.441,3.445,3.4484,3.4529,3.4548,3.4591,3.458,3.4632,3.4631,3.464,3.4645,3.4646,3.4655,3.4637,3.4636,3.4636,3.4339,3.4368,3.4402,3.4442,3.4472,3.452,3.4548,3.4582,3.4601,3.4613,3.4627,3.4639,3.4644,3.4644,3.4654,3.4634,3.4634,3.4634,3.4634,3.4364,3.4388,3.4416,3.4458,3.449,3.4526,3.4574,3.4587,3.4626,3.4629,3.4639,3.464,3.4645,3.4655,3.4634,3.4634,3.4634,3.4634,3.4634,3.4361,3.4378,3.4402,3.4452,3.4488,3.4529,3.4566,3.4593,3.4619,3.4628,3.4647,3.4648,3.4652,3.4636,3.4636,3.4636,3.4636,3.4636,3.4636,3.4349,3.4376,3.4404,3.445,3.4475,3.4512,3.4562,3.4588,3.4624,3.4641,3.4641,3.466,3.464,3.4634,3.4636,3.4636,3.4636,3.4636,3.4636,3.4363,3.4365,3.4408,3.4433,3.4491,3.4526,3.4561,3.4612,3.4638,3.4656,3.4674,3.4654,3.4663,3.4663,3.4658,3.4667,3.4667,3.4667,3.4667,3.436,3.4369,3.442,3.4459,3.4501,3.4538,3.4587,3.4628,3.467,3.4688,3.4691,3.4688,3.4686,3.4696,3.4695,3.4691,3.4708,3.4708,3.4708,3.4371,3.4385,3.4421,3.4463,3.4511,3.4552,3.46,3.4645,3.4693,3.4711,3.4703,3.4702,3.4697,3.4693,3.4708,3.4706,3.47,0,0]}]]